sat.trackr.live / text

‹ back to catalog

STARLINK-2518

NORAD 48333 · 2021-036BK

PAYLOAD ACTIVE UNKNOWN

§ Identity

Operator
Country
US
Launch date
2021-04-29
Launch site
AFETR
Launch vehicle
Mass (kg)
RCS (m²)

Purposes: comms

External: N2YO · Heavens-Above · Gunter

§ Orbital elements

Epoch: 2026-05-25T04:23:12.920352Z

Period
94.01 min
Inclination
53.1592°
Eccentricity
0.0001171
Mean motion
15.31697138 rev/d
Perigee alt
469.9 km
Apogee alt
471.6 km
Semi-major
6,848.9 km
B*
5.8542e-5
RAAN
105.2618°
Arg perigee
85.9913°
Mean anomaly
274.1222°
Rev number
27,976

§ Raw data

STARLINK-25181 48333U 21036BK  26145.18278843  .00001452  00000+0  58542-4 0  99912 48333  53.1592 105.2618 0001171  85.9913 274.1222 15.31697138279761

JSON: /api/v1/satellites/48333 · /tle

For live sub-satellite position, see the globe view (requires WebGL).

§ Visibility from observer

Set your observer location to see the next 7 days of passes ≥ 10°. The values pass through the URL so the page stays shareable.

No JS? Fill the form by hand. The geolocation button needs JavaScript.